Date String (YYYY-MM-DD hh:mm:ss) UTC,Instrument flags,absolute air pressure of the measurement (hPa),sample flow rate (lpm),inlet stack bypass flow (lpm),air temperature of the measurement (°C),ambient temperature measured by the external sensor (°C),aerosol sample conditioner tube jacket temperature (°C),OPC LED temperature (°C),internal box temperature (°C),relative humidity of the measurement (%),span deviation,mass concentration of particles derived from Lorenz-Mie calculation of OPC scattering (μg/m³),mass concentration of particles derived from Lorenz-Mie calculation of OPC scattering (μg/m³),mass concentration of particles derived from Lorenz-Mie calculation of OPC scattering (μg/m³)
DateTimeUTC,F1_M11,P_M11,Q1_M11,Q2_M11,T1_M11,T2_M11,T3_M11,T4_M11,T5_M11,U1_M11,ZSPAN_M11,X2_M11,X0_M11,X1_M11
2023-09-30 17:00:00,SystemResetWarning,0829.0,5.00,000.00,028.5,026.0,000.0,037.1,030.2,20.4,0000.0,0006.54,0017.55,0005.06
2023-09-30 17:01:00,SystemResetWarning,0829.0,5.00,000.00,028.5,026.3,000.0,037.1,030.2,19.9,0000.0,0006.53,0016.95,0005.08
2023-09-30 17:02:00,SystemResetWarning,0829.0,5.00,000.00,028.6,026.6,000.0,037.1,030.3,19.9,0000.0,0006.56,0016.96,0005.08
2023-09-30 17:03:00,SystemResetWarning,0828.9,5.00,000.00,028.6,026.8,000.0,037.1,030.3,19.3,0000.0,0006.55,0017.81,0005.06
2023-09-30 17:04:00,SystemResetWarning,0828.9,5.00,000.00,028.6,027.0,000.0,037.1,030.4,19.3,0000.0,0006.56,0018.68,0005.05
2023-09-30 17:05:00,SystemResetWarning,0829.0,4.99,000.00,028.6,027.2,000.0,037.1,030.4,19.3,0000.0,0006.59,0017.85,0005.04
2023-09-30 17:06:00,SystemResetWarning,0829.0,4.99,000.00,028.7,027.4,000.0,037.1,030.5,19.7,0000.0,0006.63,0017.98,0005.03
2023-09-30 17:07:00,SystemResetWarning,0829.0,5.00,000.00,028.7,027.5,000.0,037.1,030.5,19.8,0000.0,0006.64,0017.62,0005.03
2023-09-30 17:08:00,SystemResetWarning,0829.0,5.00,000.00,028.8,027.6,000.0,037.2,030.6,19.8,0000.0,0006.62,0017.43,0005.03
2023-09-30 17:09:00,SystemResetWarning,0829.0,4.99,000.00,028.8,027.4,000.0,037.2,030.6,19.6,0000.0,0006.59,0017.80,0005.03
2023-09-30 17:10:00,SystemResetWarning,0828.9,5.00,000.00,028.7,025.8,000.0,037.1,030.4,19.7,0000.0,0006.59,0017.67,0005.04
2023-09-30 17:11:00,SystemResetWarning,0828.8,5.01,000.00,028.7,024.7,000.0,037.0,030.2,20.1,0000.0,0006.58,0018.22,0005.04
2023-09-30 17:12:00,SystemResetWarning,0828.8,5.01,000.00,028.6,024.9,000.0,037.0,030.2,20.0,0000.0,0006.54,0018.08,0005.04
2023-09-30 17:13:00,SystemResetWarning,0828.8,5.00,000.00,028.5,025.2,000.0,037.0,030.0,20.1,0000.0,0006.53,0018.86,0005.03
2023-09-30 17:14:00,SystemResetWarning,0828.9,5.00,000.00,028.5,025.6,000.0,037.0,030.1,20.3,0000.0,0006.47,0018.62,0005.04
2023-09-30 17:15:00,SystemResetWarning,0828.8,5.00,000.00,028.5,025.9,000.0,037.0,030.1,20.3,0000.0,0006.50,0018.25,0005.05
2023-09-30 17:16:00,SystemResetWarning,0828.8,5.00,000.00,028.5,026.3,000.0,037.0,030.2,20.3,0000.0,0006.45,0018.26,0005.06
2023-09-30 17:17:00,SystemResetWarning,0828.8,4.99,000.00,028.5,026.6,000.0,037.0,030.2,20.5,0000.0,0006.49,0017.97,0005.06
2023-09-30 17:18:00,SystemResetWarning,0828.7,4.99,000.00,028.5,026.8,000.0,037.0,030.3,20.6,0000.0,0006.51,0017.46,0005.09
2023-09-30 17:19:00,SystemResetWarning,0828.8,5.00,000.00,028.5,027.0,000.0,037.0,030.3,20.6,0000.0,0006.49,0017.17,0005.09
2023-09-30 17:20:00,SystemResetWarning,0828.7,5.01,000.00,028.6,027.2,000.0,037.0,030.4,20.9,0000.0,0006.57,0017.43,0005.10
2023-09-30 17:21:00,SystemResetWarning,0828.8,5.01,000.00,028.6,027.4,000.0,037.1,030.4,21.3,0000.0,0006.53,0017.29,0005.10
2023-09-30 17:22:00,SystemResetWarning,0828.8,5.00,000.00,028.7,027.5,000.0,037.1,030.5,21.1,0000.0,0006.55,0017.17,0005.11
2023-09-30 17:23:00,SystemResetWarning,0828.7,5.00,000.00,028.7,027.6,000.0,037.1,030.6,21.0,0000.0,0006.60,0017.66,0005.12
2023-09-30 17:24:00,SystemResetWarning,0828.7,4.97,000.00,028.7,026.4,000.0,037.1,030.5,20.9,0000.0,0006.65,0017.46,0005.13
2023-09-30 17:25:00,SystemResetWarning,0828.7,5.00,000.00,028.6,024.7,000.0,037.0,030.3,21.0,0000.0,0006.71,0018.20,0005.15
2023-09-30 17:26:00,SystemResetWarning,0828.6,5.02,000.00,028.6,024.5,000.0,036.9,030.2,21.1,0000.0,0006.69,0018.51,0005.16
2023-09-30 17:27:00,SystemResetWarning,0828.7,5.00,000.00,028.5,024.8,000.0,036.9,030.0,21.8,0000.0,0006.67,0019.36,0005.16
2023-09-30 17:28:00,SystemResetWarning,0828.7,4.99,000.00,028.4,025.2,000.0,036.9,030.0,21.7,0000.0,0006.62,0019.33,0005.17
2023-09-30 17:29:00,SystemResetWarning,0828.7,5.00,000.00,028.4,025.6,000.0,036.9,030.0,21.9,0000.0,0006.58,0019.06,0005.17
2023-09-30 17:30:00,SystemResetWarning,0828.6,5.00,000.00,028.4,026.0,000.0,036.9,030.1,21.9,0002.0,0006.67,0020.01,0005.18
2023-09-30 17:31:00,SystemResetWarning,0828.6,5.00,000.00,028.4,026.3,000.0,036.9,030.1,21.7,0000.4,0006.69,0019.43,0005.20
2023-09-30 17:32:00,SystemResetWarning,0828.7,4.99,000.00,028.4,026.6,000.0,036.9,030.2,21.6,0000.0,0006.74,0019.36,0005.22
2023-09-30 17:33:00,SystemResetWarning,0828.6,5.00,000.00,028.5,026.9,000.0,037.0,030.2,21.1,0000.0,0006.75,0019.56,0005.23
2023-09-30 17:34:00,SystemResetWarning,0828.6,5.00,000.00,028.5,027.1,000.0,037.0,030.3,21.0,0000.0,0006.73,0019.62,0005.23
2023-09-30 17:35:00,SystemResetWarning,0828.6,5.01,000.00,028.5,027.2,000.0,037.0,030.4,20.9,0000.0,0006.76,0019.86,0005.24
2023-09-30 17:36:00,SystemResetWarning,0828.6,5.00,000.00,028.6,027.4,000.0,037.0,030.4,21.1,0000.0,0006.77,0019.45,0005.25
2023-09-30 17:37:00,SystemResetWarning,0828.6,5.00,000.00,028.6,027.5,000.0,037.0,030.5,21.1,0000.0,0006.84,0019.07,0005.26
2023-09-30 17:38:00,SystemResetWarning,0828.6,4.98,000.00,028.7,027.0,000.0,037.0,030.5,20.9,0000.0,0006.91,0019.55,0005.28
2023-09-30 17:39:00,SystemResetWarning,0828.6,4.99,000.00,028.6,025.2,000.0,037.0,030.3,21.2,0000.0,0006.95,0020.54,0005.28
2023-09-30 17:40:00,SystemResetWarning,0828.6,5.00,000.00,028.5,024.4,000.0,036.9,030.1,21.2,0000.0,0006.90,0020.78,0005.28
2023-09-30 17:41:00,SystemResetWarning,0828.6,5.01,000.00,028.4,024.6,000.0,036.9,030.0,21.3,0000.0,0006.84,0020.74,0005.27
2023-09-30 17:42:00,SystemResetWarning,0828.6,5.01,000.00,028.4,025.0,000.0,036.9,029.9,21.8,0000.0,0006.73,0020.39,0005.25
2023-09-30 17:43:00,SystemResetWarning,0828.6,5.00,000.00,028.3,025.4,000.0,036.9,029.9,22.0,0000.0,0006.69,0020.19,0005.25
2023-09-30 17:44:00,SystemResetWarning,0828.6,5.00,000.00,028.3,025.8,000.0,036.9,030.0,22.0,0000.0,0006.65,0019.39,0005.25
2023-09-30 17:45:00,SystemResetWarning,0828.5,5.00,000.00,028.3,026.2,000.0,036.9,030.1,21.7,0000.0,0006.65,0018.59,0005.26
2023-09-30 17:46:00,SystemResetWarning,0828.6,5.00,000.00,028.4,026.5,000.0,036.9,030.1,21.9,0000.0,0006.66,0018.36,0005.26
2023-09-30 17:47:00,SystemResetWarning,0828.6,5.00,000.00,028.4,026.7,000.0,036.9,030.2,22.2,0000.0,0006.66,0018.17,0005.26
2023-09-30 17:48:00,SystemResetWarning,0828.6,5.00,000.00,028.4,026.9,000.0,036.9,030.3,21.9,0000.0,0006.58,0017.86,0005.25
2023-09-30 17:49:00,SystemResetWarning,0828.5,5.00,000.00,028.5,027.1,000.0,036.9,030.3,21.7,0000.0,0006.60,0017.13,0005.24
2023-09-30 17:50:00,SystemResetWarning,0828.5,5.00,000.00,028.5,027.3,000.0,036.9,030.4,21.6,0000.0,0006.62,0016.20,0005.25
2023-09-30 17:51:00,SystemResetWarning,0828.6,5.00,000.00,028.6,027.5,000.0,037.0,030.4,21.6,0000.0,0006.66,0017.44,0005.26
2023-09-30 17:52:00,SystemResetWarning,0828.5,5.00,000.00,028.6,027.4,000.0,037.0,030.5,21.6,0000.0,0006.68,0016.85,0005.26
2023-09-30 17:53:00,SystemResetWarning,0828.5,5.00,000.00,028.6,025.8,000.0,036.9,030.3,21.1,0000.0,0006.76,0017.56,0005.29
2023-09-30 17:54:00,SystemResetWarning,0828.5,5.00,000.00,028.5,024.5,000.0,036.9,030.1,21.9,0000.0,0006.76,0017.86,0005.29
2023-09-30 17:55:00,SystemResetWarning,0828.4,5.01,000.00,028.5,024.5,000.0,036.8,030.0,22.1,0000.0,0006.82,0018.79,0005.30
2023-09-30 17:56:00,SystemResetWarning,0828.4,5.02,000.00,028.4,024.8,000.0,036.8,029.9,22.2,0000.0,0006.88,0019.24,0005.32
2023-09-30 17:57:00,SystemResetWarning,0828.4,4.99,000.00,028.3,025.2,000.0,036.8,029.9,21.9,0000.7,0006.89,0018.83,0005.31
2023-09-30 17:58:00,SystemResetWarning,0828.4,4.99,000.00,028.3,025.6,000.0,036.8,029.9,21.8,0000.0,0006.90,0018.26,0005.32
2023-09-30 17:59:00,SystemResetWarning,0828.4,5.00,000.00,028.3,026.0,000.0,036.8,030.0,22.2,0000.0,0006.96,0018.60,0005.35
